Other Public Products
Issued by NWS Charleston, SC

Current Version | Previous Version | Graphics & Text | Print | Product List | Glossary On
Versions: 1 2 3 4 5 6 7 8 9 10 11 12 13 14 15 16 17 18 19 20 21 22 23 24 25 26 27 28 29 30 31 32 33 34 35 36 37 38 39 40 41 42 43 44 45 46 47 48 49 50
330
FPUS82 KCHS 100512
OPUCHS

TEST...KCHS/KSAV Gateway Observations...TEST
National Weather Service Charleston SC
1200 AM EST SAT DEC 10 2016

NOTE: "fair" indicates few or no clouds below 12,000 feet with no
significant weather and/or obstructions to visibility.

SCZ050-WAZ558-NCZ071-TXZ119-213-PAZ071-DCZ001-FLZ074-172-MI076-
NYZ176-178-MAZ016-IL014-TNZ027-NJZ106-GAZ044-MD014-100600-
...Gateway Observations for Charleston International...

CITY           SKY/WX    TMP DP  RH WIND       PRES   REMARKS
Chas Airport   PTCLDY    34  24  67 N8        30.47S WCI  27
Seattle        LGT RAIN  35  33  92 SE9       29.82R FOG     WCI  28
Charlotte      CLEAR     29  13  51 NE5       30.48S WCI  24
Dallas DFW     PTCLDY    33  21  61 CALM      30.50S
Dallas Love    PTCLDY    34  21  59 SE8       30.52S WCI  27
Philladelphia  PTCLDY    30  19  63 W9        30.35R WCI  22
Wash National  PTCLDY    31  17  56 W8        30.44S WCI  23
Baltimore      CLEAR     28  18  66 W9        30.41R WCI  19
Miami          LGT RAIN  62  59  90 NW7       30.21F
Detroit        FLURRIES  25  20  81 SW15G22   30.42S WCI  13
Newark         CLEAR     29  14  53 W8        30.29F WCI  21
Laguardia      CLEAR     32  15  49 NW14      30.28F WCI  22
J F K          CLEAR     31  11  43 NW13      30.29F WCI  21
Boston Logan   CLEAR     25  11  55 NW16      30.19R WCI  12
Ft. Lauderdale LGT RAIN  66  60  81 N9        30.20F
Chicago O`Hare MOCLDY    18  12  77 W6        30.50S WCI  10
Chicago Midway MOCLDY    20  11  68 SW6       30.52S WCI  12
Houston Bush   CLOUDY    45  28  51 NE7       30.52S
Houston Hobby  CLOUDY    46  28  49 NE7       30.52R
Nashville      CLEAR     26  16  65 N5        30.60R WCI  20
Atlanta        CLEAR     31  18  58 NW10      30.45F WCI  22

$$

GAZ044-118-TXZ119-213-NCZ071-DCZ001-MDZ014-506-PAZ021-071-NJZ106-
NYZ176-178-MAZ106-OHZ011-021-055-MIZ076-KYZ091-ILZ014-INZ047-
MNZ060-100600-
...Gateway Observations for Savannah International...

CITY           SKY/WX    TMP DP  RH WIND       PRES   REMARKS
Savannah Arpt  PTCLDY    35  27  72 CALM      30.45S
Atlanta        CLEAR     31  18  58 NW10      30.45F WCI  22
Charlotte      CLEAR     29  13  51 NE5       30.48S WCI  24
Dallas DFW     PTCLDY    33  21  61 CALM      30.50S
Houston Bush   CLOUDY    45  28  51 NE7       30.52S
Wash National  PTCLDY    31  17  56 W8        30.44S WCI  23
Wash Dulles    PTCLDY    28  14  55 W8        30.43S WCI  20
Baltimore      CLEAR     28  18  66 W9        30.41R WCI  19
Philadelphia   PTCLDY    30  19  63 W9        30.35R WCI  22
Newark         CLEAR     29  14  53 W8        30.29F WCI  21
Laguardia      CLEAR     32  15  49 NW14      30.28F WCI  22
J F K          CLEAR     31  11  43 NW13      30.29F WCI  21
Boston         CLEAR     25  11  55 NW16      30.19R WCI  12
Pittsburg      PTCLDY    25  19  78 SW8       30.39F WCI  16
Akron          LGT SNOW  25  18  74 W14       30.41R WCI  13
Cleveland      CLOUDY    27  19  72 W14       30.44R WCI  16
Cincinnati     MOCLDY    20  14  77 SW5       30.52R WCI  13
Columbus         N/A     22  20  92 SW6       30.49F WCI  14
Detroit        FLURRIES  25  20  81 SW15G22   30.42S WCI  13
Chicago O`Hare MOCLDY    18  12  77 W6        30.50S WCI  10
Minneapolis    CLOUDY    12   3  67 NW9       30.51R WCI   0
Indianapolis   PTCLDY    20  15  81 W6        30.52R WCI  12

$$




USA.gov is the U.S. government's official web portal to all federal, state and local government web resources and services.